Location: Arboyeti
(42.1122°N, 44.6017°E)
Time: 10:37:58
(UTC+00:00)

SL-08 R/B - Pass Details

Date: 19 April 2021
Orbit: 949 x 1019 km, 83.0° (Epoch: 05 May)

Event Time Altitude Azimuth Distance (km) Brightness Sun altitude
Rises 23:07:11 0° 352° (N) 3,632 8.1 -29.0°
Reaches altitude 10° 23:09:40 10° 352° (N) 2,682 7.3 -28.7°
Maximum altitude 23:15:48 87° 264° (W) 959 4.3 -28.0°
Enters shadow 23:16:15 78° 188° (S) 977 4.3 -28.0°
